Notices

What's New in latest Release from April 7th, 2021:

- Updated Glossary, including Speed of Maximum Gust, and Total Hourly Precipitation

- Updated national and regional climate services offices contacts and prices information

- Addition of station inventory lists for 1981-2010, 1971-2000, and 1961-1990 Normals.

If you haven't already, please take our survey and provide feedback about our website: https://eccc.sondage-survey.ca/f/LanguageSelection.aspx?s=442ca660-fcf1-47c0-95a9-59707d6fd709

Hourly Data Report for October 10, 2015

IQALUIT CLIMATE
NUNAVUT

63°44'50.000" N
68°32'40.000" W
33.50 m
2402592
71321
XFB

Download Data

Hourly Data (October 2015)
Hourly Data Report for October 10, 2015
TIME
LST
Temp Definition
°C
Dew Point Definition
°C
Rel Hum Definition
%
Precip. Amount Definition
mm

Wind Dir Definition
10's deg

Wind Spd Definition
km/h
Visibility Definition
km
Stn Press Definition
kPa
Hmdx Definition


Wind Chill Definition


Weather Definition


00:00 -2.1 -4.0 86 0.0 34 8   99.10   -5 LegendNANA
01:00 -2.5 -4.6 85 0.0 35 5   99.08   -4 LegendNANA
02:00 -3.2 -5.5 84 0.0 4 5   99.05   -5 LegendNANA
03:00 -2.4 -4.4 86 0.0 12 2   99.05   -3 LegendNANA
04:00 -1.8 -3.4 88 0.0 16 5   99.06   -4 LegendNANA
05:00 -1.9 -3.9 87 0.0 13 11   99.11   -6 LegendNANA
06:00 -1.8 -3.4 89 0.0 12 16   99.18   -7 LegendNANA
07:00 -1.9 -2.4 96 0.0 14 12   99.20   -6 LegendNANA
08:00 -1.9 -2.5 96 0.2 15 15   99.24   -7 LegendNANA
09:00 -2.0 -2.8 94 0.0 15 16   99.28   -7 LegendNANA
10:00 -1.6 -3.0 90 0.0 14 17   99.31   -7 LegendNANA
11:00 -1.3 -2.3 93 0.0 14 21   99.34   -7 LegendNANA
12:00 -0.9 -2.5 89 0.0 15 23   99.38   -7 LegendNANA
13:00 -0.7 -3.2 83 0.0 14 20   99.41   -6 LegendNANA
14:00 -0.1 -3.3 79 0.0 14 16   99.44   -5 LegendNANA
15:00 -0.9 -1.8 94 0.0 16 12   99.50   -5 LegendNANA
16:00 -0.6 -1.9 91 0.0 17 4   99.53   -2 LegendNANA
17:00 -1.2 -2.3 92 0.2 15 15   99.57   -6 LegendNANA
18:00 -0.7 -3.6 81 0.0 13 13   99.58   -5 LegendNANA
19:00 -1.2 -4.4 79 0.0 12 12   99.59   -5 LegendNANA
20:00 -1.7 -4.5 81 0.0 12 9   99.61   -5 LegendNANA
21:00 -1.8 -4.4 82 0.0 9 4   99.59   -3 LegendNANA
22:00 -1.8 -4.6 81 0.0 3 4   99.59   -3 LegendNANA
23:00 -2.1 -3.9 88 0.0 5 10   99.61   -6 LegendNANA

Notes on Data Quality.

Legend

  • E = Estimated
  • M = Missing
  • NA = Not Available*
  • [empty] = Indicates an unobserved value
Date modified: